Regional Weather Roundup
Issued by NWS

Home | Current Version | Previous Version | Graphics & Text | Print | Product List | Glossary On
Versions: 1 2 3 4 5 6 7 8 9 10 11 12 13 14 15 16 17 18 19 20 21 22 23 24 25 26 27 28 29 30 31 32 33 34 35 36 37 38 39 40 41 42 43 44 45 46 47 48 49 50
000
ASUS45 KCYS 270110
RWRWY

WYOMING REGIONAL WEATHER ROUNDUP
NATIONAL WEATHER SERVICE CHEYENNE WY
700 PM MDT TUE JUL 26 2016

NOTE:  "FAIR" INDICATES FEW OR NO CLOUDS BELOW 12,000 FEET
WITH NO SIGNIFICANT WEATHER AND/OR OBSTRUCTIONS TO VISIBILITY.

WYZ001-270200-
YELLOWSTONE NATIONAL PARK

CITY           SKY/WX    TMP DP  RH WIND       PRES   REMARKS
LK YELLOWSTONE   N/A     72  23  16 W9        30.33F
W YELLOWSTONE  NOT AVBL

$$
WYZ002>013-054>058-071-098>099-270200-
NORTHERN WYOMING

CITY           SKY/WX    TMP DP  RH WIND       PRES   REMARKS
JACKSON        SUNNY     82  27  13 SW5       30.16F
CODY           FAIR      82  41  23 N16       30.10F
GREYBULL       FAIR      92  36  14 NW28G35   29.98S HAZE
WORLAND        FAIR      92  35  13 NE6       29.99F
SHERIDAN       FAIR      88  43  20 CALM      30.04S
BUFFALO        FAIR      79  53  40 W8        30.13S
GILLETTE       FAIR      82  47  29 NE14      30.07S
HULETT         FAIR      79  55  44 E14       30.11R
NEWCASTLE      FAIR      73  50  43 E18G25    30.05S

$$
WYZ014>020-022>026-101>103-270200-
CENTRAL WYOMING

CITY           SKY/WX    TMP DP  RH WIND       PRES   REMARKS
BIG PINEY      FAIR      79  30  16 W16G24    30.23R
PINEDALE       FAIR      82  28  14 NE5       30.23S
DUBOIS         FAIR      79  25  13 N9        30.21S
LANDER         FAIR      85  34  16 NE6       30.07R
RIVERTON       FAIR      88  34  14 N16       30.08F
CASPER         FAIR      87  32  14 E8        30.07S
DOUGLAS          N/A    N/A N/A N/A MISG      30.04F

$$
WYZ021-027>030-104>119-270200-
SOUTHERN WYOMING

CITY           SKY/WX    TMP DP  RH WIND       PRES   REMARKS
EVANSTON       FAIR      86  20   9 W15G22    30.24F
KEMMERER         N/A     82  18   9 W23G29    30.24S
FORT BRIDGER   FAIR      88  21   8 W13       30.25S
ROCK SPRINGS   FAIR      82  30  15 SE6       30.20F
DIXON          FAIR      79  35  20 S16G24    30.25S
RAWLINS        FAIR      82  25  12 W17G23    30.21S
SARATOGA       FAIR      82  32  16 W21G31    30.25R
LARAMIE        FAIR      78  31  17 S10       30.24F
CHEYENNE       FAIR      83  41  22 S12       30.16F
TORRINGTON     FAIR      74  55  51 S9        30.01R
PINE BLUFFS    FAIR      84  41  21 CALM      30.09S

$$



USA.gov is the U.S. government's official web portal to all federal, state and local government web resources and services.